Location: Lafig�re
(44.4503°N, 4.0357°E)
Time: 09:28:17
(UTC+00:00)

Tiros 1 - Pass Details

Date: 30 January 2021
Orbit: 630 x 664 km, 48.4° (Epoch: 07 March)

Event Time Altitude Azimuth Distance (km) Brightness Sun altitude
Rises 18:47:03 0° 286° (WNW) 2,932 11.8 -20.9°
Reaches altitude 10° 18:49:26 10° 290° (WNW) 2,018 10.6 -21.3°
Maximum altitude 18:54:00 56° 9° (N) 751 7.3 -22.1°
Enters shadow 18:54:26 54° 33° (NNE) 771 7.2 -22.2°
